EMX706 EGNS-EGCC

Flight info

Callsign EMX706
Flight time 0h 27m
Altitude 19000
Route TIMIS Q39 DANDI DCT PENIL
Aircraft RJ70/M-SDFGIRWY/LB1

Departure

Time 2026-05-07 16:35
Airport Isle of Man Airport (EGNS)

Arrival

Time 2026-05-07 17:03
Airport Manchester Airport (EGCC)
Time Latitude Longitude Altitude Speed Heading
2026-05-07 16:24 54.08563 -4.63273 45 ft 0 kts 44°
2026-05-07 16:29 54.08562 -4.63274 45 ft 1 kts 44°
2026-05-07 16:30 54.08548 -4.63307 40 ft 4 kts 69°
2026-05-07 16:30 54.08545 -4.63350 41 ft 3 kts 99°
2026-05-07 16:30 54.08554 -4.63387 41 ft 1 kts 133°
2026-05-07 16:30 54.08555 -4.63388 41 ft 0 kts 134°
2026-05-07 16:32 54.08554 -4.63386 41 ft 2 kts 134°
2026-05-07 16:32 54.08523 -4.63342 43 ft 8 kts 143°
2026-05-07 16:32 54.08480 -4.63356 44 ft 8 kts 212°
2026-05-07 16:33 54.08408 -4.63390 43 ft 12 kts 164°
2026-05-07 16:33 54.08358 -4.63439 42 ft 10 kts 259°
2026-05-07 16:33 54.08341 -4.63561 45 ft 10 kts 252°
2026-05-07 16:33 54.08319 -4.63661 46 ft 10 kts 245°
2026-05-07 16:34 54.08274 -4.63797 44 ft 17 kts 241°
2026-05-07 16:34 54.08203 -4.63904 37 ft 17 kts 164°
2026-05-07 16:34 54.08148 -4.63837 34 ft 11 kts 91°
2026-05-07 16:34 54.08208 -4.63329 38 ft 82 kts 78°
2026-05-07 16:35 54.08365 -4.62021 101 ft 135 kts 82°
2026-05-07 16:35 54.08592 -4.60464 715 ft 136 kts 78°
2026-05-07 16:35 54.08878 -4.58883 1288 ft 143 kts 78°
2026-05-07 16:35 54.09108 -4.57208 1919 ft 142 kts 86°
2026-05-07 16:36 54.08880 -4.55719 2637 ft 128 kts 145°
2026-05-07 16:36 54.08089 -4.55478 3343 ft 118 kts 192°
2026-05-07 16:36 54.07269 -4.55729 3920 ft 124 kts 193°
2026-05-07 16:36 54.06341 -4.56094 4305 ft 152 kts 195°
2026-05-07 16:37 54.05218 -4.56568 4672 ft 178 kts 195°
2026-05-07 16:37 54.03938 -4.57096 5114 ft 200 kts 194°
2026-05-07 16:37 54.02514 -4.57638 5659 ft 220 kts 193°
2026-05-07 16:37 54.00957 -4.58174 6262 ft 236 kts 192°
2026-05-07 16:38 53.99284 -4.58690 6774 ft 250 kts 191°
2026-05-07 16:38 53.97529 -4.59185 7248 ft 259 kts 190°
2026-05-07 16:38 53.95720 -4.59549 7841 ft 267 kts 180°
2026-05-07 16:38 53.93951 -4.58529 8526 ft 277 kts 146°
2026-05-07 16:39 53.92736 -4.56022 9353 ft 282 kts 123°
2026-05-07 16:39 53.91747 -4.53111 10099 ft 287 kts 124°
2026-05-07 16:39 53.90727 -4.50181 10837 ft 290 kts 124°
2026-05-07 16:39 53.89687 -4.47229 11613 ft 293 kts 124°
2026-05-07 16:40 53.88607 -4.44257 12402 ft 297 kts 125°
2026-05-07 16:40 53.87486 -4.41291 13208 ft 301 kts 126°
2026-05-07 16:40 53.86324 -4.38312 13961 ft 305 kts 127°
2026-05-07 16:40 53.85123 -4.35325 14639 ft 308 kts 128°
2026-05-07 16:41 53.83901 -4.32314 15294 ft 312 kts 128°
2026-05-07 16:41 53.82660 -4.29276 15922 ft 315 kts 128°
2026-05-07 16:41 53.81406 -4.26211 16555 ft 318 kts 128°
2026-05-07 16:41 53.80152 -4.23154 17196 ft 322 kts 128°
2026-05-07 16:42 53.78873 -4.20024 17786 ft 325 kts 128°
2026-05-07 16:42 53.77579 -4.16874 18340 ft 328 kts 128°
2026-05-07 16:42 53.76269 -4.13705 18751 ft 332 kts 128°
2026-05-07 16:42 53.74923 -4.10471 18912 ft 339 kts 128°
2026-05-07 16:43 53.73599 -4.07292 18954 ft 327 kts 128°
2026-05-07 16:43 53.72287 -4.04140 18977 ft 333 kts 128°
2026-05-07 16:43 53.70915 -4.00859 18991 ft 351 kts 128°
2026-05-07 16:43 53.69489 -3.97401 19000 ft 367 kts 127°
2026-05-07 16:44 53.68162 -3.93623 19013 ft 381 kts 119°
2026-05-07 16:44 53.67070 -3.89515 19000 ft 384 kts 115°
2026-05-07 16:44 53.66060 -3.85349 18996 ft 384 kts 114°
2026-05-07 16:44 53.65071 -3.81166 18990 ft 384 kts 114°
2026-05-07 16:45 53.64098 -3.76959 18884 ft 387 kts 114°
2026-05-07 16:45 53.63126 -3.72729 18168 ft 386 kts 113°
2026-05-07 16:45 53.62141 -3.68650 17358 ft 372 kts 118°
2026-05-07 16:45 53.60944 -3.64879 17093 ft 356 kts 123°
2026-05-07 16:46 53.59628 -3.61373 17006 ft 353 kts 126°
2026-05-07 16:46 53.58224 -3.57926 16996 ft 364 kts 127°
2026-05-07 16:46 53.56753 -3.54417 16998 ft 367 kts 128°
2026-05-07 16:46 53.55260 -3.50949 16996 ft 366 kts 128°
2026-05-07 16:47 53.53770 -3.47477 16993 ft 366 kts 128°
2026-05-07 16:47 53.52284 -3.43990 16992 ft 367 kts 126°
2026-05-07 16:47 53.51495 -3.41468 16833 ft 373 kts 112°
2026-05-07 16:47 53.51216 -3.35753 15910 ft 374 kts 82°
2026-05-07 16:48 53.51751 -3.31498 15211 ft 369 kts 80°
2026-05-07 16:48 53.52207 -3.27287 14523 ft 364 kts 83°
2026-05-07 16:48 53.52531 -3.23099 13841 ft 359 kts 86°
2026-05-07 16:48 53.52750 -3.18944 13109 ft 354 kts 88°
2026-05-07 16:49 53.52852 -3.16230 12665 ft 350 kts 89°
2026-05-07 16:49 53.52972 -3.12179 12010 ft 344 kts 90°
2026-05-07 16:49 53.53059 -3.08180 11359 ft 340 kts 91°
2026-05-07 16:49 53.53132 -3.04220 10730 ft 339 kts 91°
2026-05-07 16:50 53.53217 -3.00263 10116 ft 338 kts 90°
2026-05-07 16:50 53.53311 -2.96382 9509 ft 310 kts 90°
2026-05-07 16:50 53.53402 -2.92974 8912 ft 291 kts 91°
2026-05-07 16:50 53.53476 -2.89541 8369 ft 296 kts 91°
2026-05-07 16:51 53.53541 -2.86067 7848 ft 299 kts 91°
2026-05-07 16:51 53.53612 -2.82763 7384 ft 275 kts 91°
2026-05-07 16:51 53.53679 -2.79473 7113 ft 281 kts 91°
2026-05-07 16:51 53.53744 -2.76210 7013 ft 280 kts 91°
2026-05-07 16:52 53.53806 -2.72935 6996 ft 280 kts 91°
2026-05-07 16:52 53.53799 -2.69662 6961 ft 280 kts 97°
2026-05-07 16:52 53.53625 -2.66369 6564 ft 282 kts 99°
2026-05-07 16:52 53.53388 -2.63089 6179 ft 282 kts 101°
2026-05-07 16:53 53.53141 -2.59833 5851 ft 278 kts 100°
2026-05-07 16:53 53.52900 -2.56629 5624 ft 274 kts 100°
2026-05-07 16:53 53.52657 -2.53517 5447 ft 270 kts 101°
2026-05-07 16:53 53.52425 -2.50406 5312 ft 265 kts 100°
2026-05-07 16:54 53.52199 -2.47367 5175 ft 260 kts 101°
2026-05-07 16:54 53.51973 -2.44355 5024 ft 258 kts 101°
2026-05-07 16:54 53.51749 -2.41376 4900 ft 256 kts 101°
2026-05-07 16:54 53.51526 -2.38410 4776 ft 254 kts 100°
2026-05-07 16:55 53.51320 -2.35513 4652 ft 247 kts 100°
2026-05-07 16:55 53.51113 -2.32659 4526 ft 245 kts 101°
2026-05-07 16:55 53.50906 -2.29820 4376 ft 244 kts 100°
2026-05-07 16:55 53.50700 -2.26993 4258 ft 244 kts 100°
2026-05-07 16:56 53.50493 -2.24167 4111 ft 244 kts 101°
2026-05-07 16:56 53.50284 -2.21336 3995 ft 243 kts 100°
2026-05-07 16:56 53.49859 -2.15726 3733 ft 241 kts 101°
2026-05-07 16:57 53.49645 -2.12941 3608 ft 240 kts 101°
2026-05-07 16:57 53.49437 -2.10167 3523 ft 238 kts 101°
2026-05-07 16:57 53.49236 -2.07458 3513 ft 236 kts 100°
2026-05-07 16:57 53.48991 -2.04727 3503 ft 236 kts 109°
2026-05-07 16:58 53.48098 -2.02556 3504 ft 226 kts 148°
2026-05-07 16:58 53.46622 -2.01893 3523 ft 222 kts 186°
2026-05-07 16:58 53.45268 -2.02929 3528 ft 214 kts 224°
2026-05-07 16:58 53.44485 -2.05007 3487 ft 208 kts 239°
2026-05-07 16:59 53.43832 -2.07222 3141 ft 217 kts 247°
2026-05-07 16:59 53.43548 -2.09670 2728 ft 204 kts 258°
2026-05-07 16:59 53.43126 -2.11824 2448 ft 184 kts 229°
2026-05-07 16:59 53.42308 -2.13301 2251 ft 169 kts 225°
2026-05-07 17:00 53.41602 -2.14694 2020 ft 152 kts 226°
2026-05-07 17:00 53.40953 -2.16023 1802 ft 139 kts 226°
2026-05-07 17:00 53.40372 -2.17222 1577 ft 129 kts 226°
2026-05-07 17:00 53.39809 -2.18369 1453 ft 124 kts 226°
2026-05-07 17:01 53.39294 -2.19437 1298 ft 115 kts 227°
2026-05-07 17:01 53.38785 -2.20465 1128 ft 113 kts 226°
2026-05-07 17:01 53.38295 -2.21484 970 ft 112 kts 226°
2026-05-07 17:01 53.37790 -2.22514 861 ft 116 kts 226°
2026-05-07 17:02 53.37273 -2.23574 650 ft 121 kts 232°
2026-05-07 17:02 53.36749 -2.24645 469 ft 119 kts 230°
2026-05-07 17:02 53.36241 -2.25702 347 ft 118 kts 229°
2026-05-07 17:02 53.35752 -2.26711 274 ft 105 kts 230°
2026-05-07 17:03 53.35395 -2.27452 243 ft 49 kts 231°
2026-05-07 17:03 53.35276 -2.27772 237 ft 29 kts 253°
2026-05-07 17:03 53.35238 -2.28080 231 ft 25 kts 261°
2026-05-07 17:03 53.35284 -2.28222 232 ft 12 kts 22°
2026-05-07 17:04 53.35347 -2.28186 234 ft 9 kts 17°
2026-05-07 17:04 53.35424 -2.28161 236 ft 14 kts
2026-05-07 17:04 53.35530 -2.28075 234 ft 18 kts 34°
2026-05-07 17:04 53.35613 -2.27926 239 ft 17 kts 52°
2026-05-07 17:05 53.35707 -2.27877 245 ft 14 kts
2026-05-07 17:05 53.35797 -2.27865 249 ft 13 kts
2026-05-07 17:05 53.35882 -2.27851 254 ft 12 kts
2026-05-07 17:05 53.35902 -2.27849 255 ft 6 kts 360°
2026-05-07 17:06 53.35986 -2.27895 255 ft 20 kts 319°
2026-05-07 17:06 53.36858 -2.28594 255 ft 0 kts 315°